SCP
0 0 0 0 0 0 0 0 0 0 0 0 0 0 0 0 0 0 0 0 0 0 0 0 0 0 0 0 0 0 0 1 2 2 2 1 1 0 0 0 0 0 1 1
0 0 0 0 0 0 0 0 0 0 0 0 0 0 0 0 0 0 0 0 0 0 0 0 0 0 0 0 0 0 0 1 2 2 1 1 0 0 0 0 0 0 1 1
0 0 0 0 0 0 0 0 0 0 0 0 0 0 0 0 0 0 0 0 0 0 0 0 0 0 0 0 0 0 0 0 1 1 1 0 0 0 0 0 0 0 0 0
0 0 0 0 0 0 0 0 0 0 0 0 0 0 0 0 0 0 0 0 0 0 0 0 0 0 0 0 0 0 0 0 0 0 0 0 0 0 0 0 0 0 0 0
0 0 0 0 0 0 0 0 0 0 0 0 0 0 0 0 0 0 0 0 0 0 0 0 0 0 0 0 0 0 0 0 0 0 0 0 0 0 0 0 0 0 0 0
0 0 0 0 0 0 0 0 0 0 0 0 0 0 0 0 0 0 0 0 0 0 0 0 0 0 0 0 0 0 0 0 0 0 0 0 0 0 0 0 0 0 0 1
0 0 0 0 0 0 0 0 0 0 0 0 0 0 0 0 0 0 0 0 0 0 0 0 0 0 0 0 0 0 0 0 0 0 0 0 0 0 0 0 0 0 0 1
0 0 0 0 0 0 0 0 0 0 0 0 0 0 0 0 0 0 0 0 0 0 0 0 0 0 0 0 0 0 0 0 0 0 0 0 0 0 0 0 0 0 0 0
0 0 0 0 0 0 0 0 0 0 0 0 0 0 0 0 0 0 0 0 0 0 0 0 0 0 0 0 0 0 0 0 0 0 0 0 0 0 0 0 0 0 0 0
0 0 0 0 0 0 0 0 0 0 0 0 0 0 0 0 0 0 0 0 0 0 0 0 0 0 0 0 0 0 0 0 0 0 0 0 0 0 0 0 0 0 0 0
0 0 0 0 0 0 0 0 0 0 0 0 0 0 0 0 0 0 0 0 0 0 0 0 0 0 0 0 0 0 0 0 0 0 0 0 0 0 0 0 0 0 0 0
0 0 0 0 0 0 0 0 0 0 0 0 0 0 0 0 0 0 0 0 0 0 0 0 0 0 0 0 0 0 0 0 0 0 0 0 0 0 0 0 0 0 0 0
0 0 0 0 0 0 0 0 0 0 0 0 0 0 0 0 0 0 0 0 0 0 0 0 0 0 0 0 0 0 0 0 0 0 0 0 0 0 0 0 0 0 0 0
0 0 0 0 0 0 0 0 0 0 0 0 0 0 0 0 0 0 0 0 0 0 0 0 0 0 0 0 0 0 0 0 0 0 0 0 0 0 0 0 0 0 0 0
0 0 0 0 0 0 0 0 0 0 0 0 0 0 0 0 0 0 0 0 0 0 0 0 0 0 0 0 0 0 0 0 0 0 0 0 0 0 0 0 0 0 0 0
0 0 0 0 0 0 0 0 0 0 0 0 0 0 0 0 0 0 0 0 0 0 0 0 0 0 0 0 0 0 0 0 0 0 0 0 0 0 0 0 0 0 0 0
0 0 0 0 0 0 0 0 0 0 0 0 0 0 0 0 0 0 0 0 0 0 0 0 0 0 0 0 0 0 0 0 0 0 0 0 0 0 0 0 0 0 0 0
0 0 0 0 0 0 0 0 0 0 0 0 0 0 0 0 0 0 0 0 0 0 0 0 0 0 0 0 0 0 0 0 0 0 0 0 0 0 0 0 0 0 0 0
0 0 0 0 0 0 0 0 0 0 0 0 0 0 0 0 0 0 0 0 0 0 0 0 0 0 0 0 0 0 0 0 0 0 0 0 0 0 0 0 0 0 0 0
0 0 0 0 0 0 0 0 0 0 0 0 0 0 0 0 0 0 0 0 0 0 0 0 0 0 0 0 0 0 0 0 0 0 0 0 0 0 0 0 0 0 0 0
0 0 0 0 0 0 0 0 0 0 0 0 0 0 0 0 0 0 0 0 0 0 0 0 0 0 0 0 0 0 0 0 0 0 0 0 0 0 0 0 0 0 0 0
0 0 0 0 0 0 0 0 0 0 0 0 0 0 0 0 0 0 0 0 0 0 0 0 0 0 0 0 0 0 0 0 0 0 0 0 0 0 0 0 0 0 0 0
0 0 0 0 0 0 0 0 0 0 0 0 0 0 0 0 0 0 0 0 0 0 0 0 0 0 0 0 0 0 0 0 0 0 0 0 0 0 0 0 0 0 0 0
0 0 0 0 0 0 0 0 0 0 0 0 0 0 0 0 0 0 0 0 0 0 0 0 0 0 0 0 0 0 0 0 0 0 0 0 0 0 0 0 0 0 0 0
0 0 0 0 0 0 0 0 0 0 0 0 0 0 0 0 0 0 0 0 0 0 0 0 0 0 0 0 0 0 0 0 0 0 0 0 0 0 0 0 0 0 0 0
0 0 0 0 0 0 0 0 0 0 0 0 0 0 0 0 0 0 0 0 0 0 0 0 0 0 0 0 0 0 0 0 0 0 0 0 0 0 0 0 0 0 0 0
Wind_Speed
4 4 5 4 3 2 2 2 1 1 2 3 4 6 6 5 6 6 5 5 5 4 3 2 2 1 1 1 2 2 3 4 4 3 3 3 2 3 3 3 3 4 4 3
4 6 4 2 3 3 2 2 0 1 2 3 5 8 7 5 6 6 6 5 5 4 3 3 2 2 2 2 2 2 3 4 3 3 3 3 3 3 3 3 3 3 3 3
5 4 1 2 3 2 2 0 1 2 3 2 5 6 5 4 5 6 6 6 5 5 4 3 3 3 3 2 2 2 3 4 3 4 3 3 2 3 3 3 3 3 3 3
4 2 1 2 2 1 1 1 2 2 3 1 3 4 4 4 5 6 6 6 5 5 5 4 4 3 3 3 2 3 3 3 3 3 3 4 3 3 4 4 3 4 3 3
3 1 0 1 2 2 1 1 1 2 2 3 2 5 5 3 6 6 6 5 5 5 5 5 4 4 4 3 3 3 3 3 3 3 3 4 4 4 3 3 4 4 3 3
2 1 1 1 1 1 0 1 1 2 2 4 2 5 5 4 5 4 4 5 5 5 5 5 4 4 3 3 3 3 3 3 3 3 3 3 4 4 4 4 3 3 2 2
2 1 1 0 0 1 1 2 2 2 3 3 2 6 8 3 3 5 5 4 4 4 5 5 5 4 4 4 3 4 4 4 3 3 4 4 4 4 5 4 4 4 3 2
2 0 1 1 2 1 1 3 2 3 3 2 3 8 5 2 4 5 6 5 4 4 4 5 5 5 5 5 4 4 5 5 4 4 4 4 4 3 3 4 4 4 3 3
2 1 1 1 1 2 1 1 2 2 2 5 5 6 7 3 4 4 4 4 4 4 4 5 5 6 5 5 5 5 5 5 4 4 4 4 4 4 4 4 3 3 3 3
2 3 1 1 2 1 2 1 2 2 4 6 5 6 4 3 2 2 3 4 5 4 5 5 6 6 6 5 5 5 5 6 5 4 4 3 3 4 3 3 3 3 3 3
1 3 2 2 4 4 4 4 3 2 3 5 6 4 1 3 2 3 3 4 5 6 6 6 5 5 5 5 5 5 5 5 5 4 4 4 3 3 3 3 3 3 3 3
1 2 4 4 0 2 4 5 5 4 4 5 6 7 1 3 3 4 5 6 6 6 6 6 6 5 5 5 5 5 5 5 5 4 4 4 3 3 3 3 3 3 3 3
2 3 4 3 4 4 5 5 6 4 4 6 7 8 3 1 4 6 8 8 7 7 7 6 5 5 5 5 5 5 5 5 5 4 4 4 4 3 3 3 3 3 3 3
3 5 7 7 4 2 6 8 9 9 7 9 14 15 10 9 10 10 10 10 9 8 7 6 6 6 6 5 6 6 6 5 4 4 4 5 4 4 4 3 3 3 3 3
4 6 8 12 13 12 15 15 15 17 16 14 14 16 18 14 13 12 11 10 9 8 7 7 7 6 6 6 6 6 6 5 5 5 5 5 4 4 3 3 3 3 3 3
4 6 5 9 9 11 16 19 19 19 20 22 22 23 18 12 10 10 10 9 9 9 8 8 7 7 7 6 6 6 6 5 5 6 6 5 4 4 4 3 3 3 3 3
4 4 4 7 6 10 13 12 14 13 14 14 17 15 10 9 10 10 10 10 10 10 9 9 8 8 7 7 7 7 6 5 6 6 6 5 5 5 4 4 4 4 4 3
7 5 4 6 6 10 3 1 6 10 12 14 15 14 11 11 11 11 11 11 10 9 9 9 8 8 7 6 6 6 6 6 6 7 6 6 5 5 5 4 5 5 4 4
10 7 5 4 7 12 8 4 5 6 8 9 14 14 12 9 9 9 6 7 9 10 10 9 8 8 7 7 6 6 6 6 7 7 7 7 6 6 5 5 5 5 4 4
6 8 7 6 7 9 3 3 3 3 6 2 5 7 7 5 7 6 5 7 9 10 8 8 8 7 7 7 6 7 7 8 8 8 7 6 6 6 7 6 5 4 4 4
6 7 10 11 10 12 6 4 5 5 3 1 3 5 5 7 9 10 10 10 10 10 9 8 7 7 7 6 6 8 8 9 8 6 6 6 6 7 7 6 5 5 4 4
9 9 10 8 10 11 5 8 8 5 3 4 5 7 8 10 12 12 12 11 10 10 9 7 7 7 6 6 7 9 10 8 6 6 6 7 7 6 5 6 5 5 5 5
11 10 7 11 11 5 6 8 6 5 7 8 8 10 10 12 13 13 13 12 11 10 9 7 7 8 7 7 8 10 9 6 6 7 7 7 6 6 6 6 6 5 5 4
7 7 8 10 14 13 12 13 12 11 12 12 11 11 11 13 14 14 13 11 11 10 8 7 8 8 8 7 8 10 8 6 7 8 7 6 6 6 6 5 5 5 5 5
8 7 9 14 15 14 13 12 12 12 12 12 13 12 13 14 14 14 12 12 11 9 8 7 8 9 10 8 8 8 7 7 8 8 7 6 6 6 6 6 5 6 6 5
11 13 12 14 13 12 13 11 11 12 13 13 13 14 13 12 14 14 12 11 10 10 9 8 9 10 9 8 8 7 7 8 8 7 7 6 5 5 5 5 4 5 6 6
Wind_Direction
36 83 75 58 37 71 138 164 191 4 355 285 262 269 268 253 239 239 235 228 225 230 231 222 215 216 246 282 309 324 333 336 334 328 319 310 305 306 304 306 301 298 296 287
98 67 45 59 87 102 135 163 14 339 347 286 281 275 268 243 233 238 239 234 230 227 219 214 222 223 242 265 293 308 319 325 327 320 313 296 296 294 297 290 293 297 295 292
77 61 39 102 95 83 82 241 322 317 308 244 286 260 224 218 229 241 242 243 243 239 237 229 227 232 243 260 285 298 310 314 317 313 302 293 282 275 277 287 299 308 303 292
72 59 104 91 61 350 65 11 291 291 290 295 315 282 238 222 235 233 232 230 237 238 242 243 239 241 247 259 270 278 289 300 307 301 293 291 284 288 293 300 298 303 304 297
82 59 42 42 2 324 17 332 283 279 276 276 224 261 260 211 233 224 219 225 236 243 246 247 247 249 254 258 261 268 279 290 301 298 292 288 286 289 290 293 294 298 304 314
69 48 338 354 0 355 339 203 171 208 241 253 229 249 264 214 225 221 218 238 249 251 249 249 247 246 250 253 254 261 270 281 292 291 285 282 286 292 293 294 296 297 294 295
46 116 68 311 217 138 277 266 249 223 227 245 154 247 257 253 244 249 254 260 267 263 255 252 247 245 248 251 255 259 265 272 281 282 281 281 283 282 283 287 287 288 288 292
351 171 78 343 312 296 298 297 305 291 286 296 212 247 260 285 268 258 258 262 267 266 257 256 254 254 253 252 255 258 263 269 273 275 279 282 285 281 281 284 286 285 288 293
336 302 69 350 320 271 228 211 351 297 289 273 253 264 278 230 236 234 242 256 270 272 266 264 260 254 255 255 255 257 260 263 265 268 270 274 279 280 282 284 283 285 291 297
313 284 269 320 196 180 310 170 197 235 276 276 271 256 250 211 214 224 255 278 289 290 281 273 266 259 256 254 254 253 251 255 261 264 266 272 275 279 281 278 279 280 283 288
277 275 271 227 221 208 177 190 215 235 269 280 288 270 220 238 260 275 285 296 299 292 287 281 275 266 260 253 248 246 247 250 255 258 260 263 267 268 273 274 274 274 274 272
203 269 269 251 227 316 245 225 207 237 237 241 275 277 67 250 279 286 292 301 298 290 286 280 273 267 257 249 245 242 243 245 247 250 252 257 262 261 261 265 269 268 268 267
183 235 279 219 177 191 225 221 221 241 257 233 243 258 113 239 286 293 296 301 297 289 286 278 270 263 257 251 246 243 243 244 247 246 244 247 248 250 252 259 266 264 262 262
211 236 242 266 299 245 239 231 219 217 230 241 240 261 267 278 293 301 301 298 295 288 279 273 269 265 259 252 246 244 243 241 241 239 240 243 243 244 249 257 259 259 258 259
224 253 251 264 273 270 263 256 238 229 233 247 258 265 273 284 292 295 295 295 291 286 281 275 269 266 259 252 246 242 241 235 229 229 233 239 241 241 241 242 247 250 251 254
228 257 273 272 265 268 266 256 245 243 242 247 261 271 276 287 285 283 287 289 285 283 281 279 273 266 259 253 248 243 238 230 225 227 229 231 230 231 233 235 238 238 240 244
216 233 263 274 298 293 266 247 227 223 225 231 244 254 279 284 285 289 292 287 282 283 282 278 274 267 262 256 248 243 239 230 225 227 228 224 223 226 227 226 227 231 233 235
217 214 251 284 298 255 251 165 224 231 244 233 247 263 274 282 294 290 282 278 281 284 282 279 275 270 264 258 249 243 234 227 225 227 227 224 221 225 224 224 226 228 226 228
219 217 238 256 271 277 281 239 202 223 264 238 243 260 274 290 292 278 268 267 283 287 284 281 276 271 264 255 246 236 233 228 225 227 227 223 220 222 223 225 227 225 225 227
201 219 233 234 253 259 277 135 162 221 263 227 230 263 281 285 289 309 324 300 294 291 285 281 277 269 261 253 240 231 234 231 230 229 227 222 219 221 224 227 226 222 222 225
173 202 222 233 248 265 268 161 164 235 322 16 259 271 268 264 283 306 309 300 294 292 288 283 274 265 259 250 235 234 237 237 236 230 225 221 219 222 225 224 220 218 218 219
198 198 207 209 226 251 179 161 207 266 328 291 283 278 275 279 288 294 295 296 294 291 286 280 272 266 261 243 233 238 241 241 233 222 221 222 220 218 217 219 217 215 213 217
219 215 211 212 231 267 190 221 251 278 277 283 286 287 285 286 289 292 293 292 292 287 284 279 271 268 260 242 232 239 243 236 223 219 222 221 218 215 212 213 213 211 212 217
229 228 240 251 258 263 262 262 268 268 268 275 281 285 283 282 287 289 289 289 288 286 281 278 272 267 262 249 239 240 241 226 221 223 223 217 214 214 212 213 212 213 213 216
236 210 235 254 269 280 269 260 265 272 272 275 278 278 276 281 284 285 285 286 285 281 277 271 264 264 264 258 250 242 233 219 219 223 222 218 216 214 212 213 214 218 221 222
226 227 237 255 264 267 279 282 278 278 279 279 282 282 280 278 280 282 281 281 282 279 276 271 267 265 265 259 253 245 229 218 216 218 218 215 213 211 211 210 214 220 232 228